Location: Miss�
(46.9484°N, 0.1922°W)
Time: 08:59:17
(UTC+00:00)

YAOGAN 1 - Pass Details

Date: 02 March 2021
Orbit: 618 x 620 km, 97.9° (Epoch: 12 April)

Event Time Altitude Azimuth Distance (km) Brightness Sun altitude
Rises 18:56:43 0° 175° (S) 2,884 5.9 -12.5°
Reaches altitude 10° 18:58:55 10° 180° (S) 1,983 5.1 -12.9°
Maximum altitude 19:03:10 58° 259° (W) 728 3.2 -13.6°
Drops below altitude 10° 19:07:28 10° 339° (NNW) 1,999 5.5 -14.4°
Sets 19:09:42 0° 344° (NNW) 2,910 6.3 -14.7°
